Retour au catalogue

STARLINK-33572

ActifCommunicationsVLEO
NORAD 62767·PAYLOAD·🇺🇸 United States

Lancé Jan 21, 2025 depuis Vandenberg Space Force Base

Loading…

Prochains Passages (prochaines 24 heures)

TLE

FraisSource: CelesTrak SupGP

Époque: Sep 14, 2026, 20:35 UTC

1 62767C 25015K   26257.85812500 -.00052868  00000+0 -15614-2 0  2578
2 62767  53.1584 160.3161 0001276  94.5833 230.3077 15.34428141    18

Suivez STARLINK-33572 en temps réel avec AllMySat

Download on the App Store